Dewpoint
60 63 65 65 65 65 65 65 64 64 66 66 64 65 65 66 68 68 68 70 69 68 67 65 64 66 66 66 67 65 65 65 67 67 67 66 66 66 65 64 64 63 63 63 63 63 62 62 62 63 64 64 64 64 62 63 64 64 63 62 62 63 62 62 59 59 62 62 60 57 56 56 51 51 50 50 52 50 49 50 53 55 53 51 51
60 60 64 65 66 65 65 65 65 65 65 66 67 66 67 68 68 68 68 67 68 67 66 66 66 66 65 66 65 64 65 65 66 67 66 65 67 66 66 64 64 63 63 61 62 62 63 61 61 62 63 62 64 61 60 60 61 62 63 63 61 63 64 62 61 59 60 62 60 59 57 57 56 55 55 53 52 51 49 49 50 52 50 50 49
57 60 61 64 66 66 66 66 67 67 67 67 66 66 68 69 68 67 67 67 67 67 67 67 66 66 66 66 66 65 65 66 66 66 67 66 66 66 65 65 64 63 62 60 59 60 61 62 62 62 63 64 63 63 63 62 61 61 62 62 62 63 63 62 62 60 59 62 62 59 58 57 59 55 54 53 53 51 47 47 50 52 50 50 49
57 58 60 63 65 66 66 66 67 67 67 67 67 67 68 68 67 68 68 68 67 67 67 67 66 66 67 66 66 65 65 66 66 65 65 65 65 65 65 66 64 63 62 60 59 61 61 62 63 63 64 63 62 62 63 64 64 64 63 63 63 62 64 64 63 63 61 61 62 57 58 58 57 57 53 53 54 52 50 50 53 53 50 50 49
54 57 59 62 63 64 66 66 66 67 66 66 66 66 66 67 67 66 67 67 66 67 66 66 66 65 65 65 66 65 65 65 65 65 66 66 66 65 65 65 64 63 62 61 61 61 62 63 62 63 64 64 64 63 63 65 63 64 65 63 62 63 64 64 64 63 61 61 60 60 60 58 59 59 55 52 55 55 55 53 53 51 51 51 50
52 56 58 60 61 63 64 65 66 66 66 66 66 67 66 66 67 66 65 65 66 67 66 65 64 65 65 65 65 65 65 65 65 65 65 65 66 66 67 65 64 63 62 62 60 61 62 62 63 63 64 65 64 64 65 64 63 64 64 64 62 64 65 64 64 64 63 62 60 62 62 59 58 58 55 54 56 55 53 53 54 53 52 53 51
51 55 59 60 59 62 63 64 65 66 66 66 66 66 65 66 65 66 66 65 66 66 65 65 65 64 64 65 65 65 65 66 66 66 66 65 66 65 65 65 64 64 63 62 61 61 61 62 63 64 64 65 65 64 65 66 65 65 65 66 64 64 64 64 63 64 63 63 60 62 61 60 59 57 56 55 56 56 55 54 53 52 52 52 51
54 53 57 60 60 61 62 63 64 65 65 66 66 66 66 66 65 65 66 66 66 65 64 64 64 64 65 64 64 65 66 66 66 66 66 66 66 66 65 66 64 64 64 63 63 62 61 61 63 64 64 64 64 65 66 66 65 65 65 65 65 65 64 64 64 62 63 63 61 60 61 60 59 59 59 56 54 55 55 54 53 52 52 53 52
53 54 55 58 60 60 62 63 63 63 64 64 65 66 66 65 65 66 65 66 66 65 64 63 63 65 65 65 64 66 66 66 66 66 65 65 65 65 65 65 65 64 64 64 63 63 63 63 62 62 64 62 59 61 62 63 65 64 64 64 64 64 64 64 62 62 62 62 62 62 60 60 59 58 57 53 54 55 57 55 54 53 52 52 52
54 53 54 56 60 60 60 62 62 63 63 63 63 65 65 65 65 65 65 65 65 65 65 64 64 64 65 65 65 66 66 66 62 59 59 65 66 65 65 65 65 64 64 64 64 64 63 63 63 60 59 59 58 55 55 56 59 63 64 64 64 64 63 62 61 61 62 62 61 61 60 61 59 58 58 56 58 59 57 56 54 53 53 52 52
54 54 54 54 56 58 60 60 62 62 63 64 64 64 64 64 65 64 64 64 65 65 65 65 65 64 65 65 65 66 66 65 57 54 53 55 64 65 66 66 65 65 65 64 64 64 64 63 64 63 61 59 60 54 54 52 53 54 56 59 61 65 63 62 61 62 60 60 60 61 61 61 61 59 58 58 59 59 57 56 55 53 52 51 49
56 54 54 55 55 56 59 60 61 61 62 62 62 62 63 63 64 63 63 63 64 65 65 65 64 64 66 65 66 66 66 60 54 54 54 53 57 66 67 65 66 66 65 64 64 64 64 64 64 65 64 64 64 63 58 53 50 51 52 52 53 54 56 62 62 62 62 60 60 62 62 62 61 60 58 58 58 58 59 58 56 54 53 52 51
51 55 55 54 54 56 57 60 61 61 61 61 62 62 61 62 62 62 63 63 64 64 64 65 65 66 66 65 65 65 66 56 52 51 51 52 53 60 66 65 66 65 65 64 64 64 64 64 65 65 63 61 62 63 64 64 54 50 52 52 52 50 50 51 53 65 63 62 61 61 61 62 62 60 60 58 59 59 58 56 57 55 55 53 52
50 52 53 55 55 55 58 59 61 61 61 60 61 61 61 59 61 62 62 64 64 64 65 65 65 65 65 65 65 65 66 56 51 51 51 51 51 55 66 66 66 65 65 64 65 65 65 65 65 65 65 65 65 64 64 64 64 62 61 62 64 60 50 48 49 49 56 64 63 62 63 62 60 60 60 60 59 57 58 57 58 56 55 55 55
58 56 57 57 58 58 59 59 60 61 61 61 61 60 60 61 61 62 63 64 64 64 64 65 65 65 65 65 64 65 65 52 50 49 50 49 49 52 66 65 66 66 65 65 65 65 65 64 65 64 65 66 65 64 64 64 65 64 64 63 64 64 64 64 63 63 63 64 64 64 63 63 63 63 61 61 60 60 60 59 58 57 57 57 55
53 54 55 57 60 59 60 60 60 61 61 60 61 61 62 62 62 63 63 64 64 64 64 64 64 65 66 66 66 65 66 50 49 49 49 49 48 59 65 65 65 65 66 66 65 65 65 65 65 65 65 65 60 55 58 64 64 64 64 64 64 65 65 62 58 58 64 65 64 64 64 69 58 64 62 60 60 61 58 58 58 57 55 53 51
51 52 53 54 56 58 60 60 59 59 60 60 61 61 61 62 62 62 63 64 64 64 65 65 65 65 65 66 65 65 65 55 48 48 48 47 50 61 64 64 63 64 65 66 65 66 66 66 66 65 65 65 58 51 53 56 65 64 64 64 64 64 64 65 55 52 52 53 53 53 52 47 48 52 50 50 57 59 58 55 54 55 53 51 50
50 51 52 52 54 56 57 57 58 58 58 58 58 61 62 63 62 63 63 62 62 63 63 64 65 65 65 65 64 64 64 59 47 48 48 47 53 62 63 63 63 64 64 65 66 65 65 61 64 65 66 65 54 49 51 56 64 64 64 64 64 63 64 64 65 60 50 50 50 50 49 45 46 46 46 46 47 51 57 53 55 54 52 50 46
49 50 51 51 52 54 57 58 58 58 56 57 60 60 60 60 62 64 64 64 63 62 62 63 64 64 64 65 61 63 64 60 48 48 47 47 52 62 63 63 63 63 64 64 65 64 64 62 60 61 63 62 51 49 49 57 64 64 64 64 64 63 64 65 65 64 62 61 60 60 57 50 55 58 57 44 44 50 58 57 55 53 50 48 47
48 49 50 51 52 53 55 56 59 60 59 58 58 61 60 58 59 62 62 63 63 62 61 61 62 63 64 64 65 65 65 65 56 47 48 47 48 61 63 63 62 63 64 63 64 64 64 64 61 53 53 53 50 47 48 51 63 65 65 64 64 64 65 65 65 64 64 62 62 62 61 61 59 59 59 56 53 54 57 58 57 54 51 48 47
48 49 50 50 51 52 53 55 56 58 59 61 61 61 62 61 60 61 61 62 63 63 63 63 63 64 66 65 65 65 65 64 63 46 47 46 47 53 63 63 63 63 63 62 63 62 63 63 64 57 51 51 49 46 48 48 54 65 65 64 65 64 61 64 65 57 64 63 62 62 62 62 61 60 58 58 54 54 54 56 57 55 52 49 46
47 48 48 49 50 51 52 54 55 57 57 58 62 61 61 61 60 60 61 61 60 62 64 63 63 63 64 64 64 64 62 59 66 47 46 46 46 48 61 63 63 63 63 63 63 62 63 63 64 59 51 51 50 46 46 47 48 62 66 56 54 54 65 65 65 64 63 63 62 60 61 60 60 60 58 57 55 54 54 55 55 55 53 52 49
46 48 48 49 50 51 52 53 54 56 57 57 58 59 62 60 61 59 59 60 60 60 58 60 61 63 63 62 64 64 64 63 55 56 45 46 45 47 50 58 53 64 62 62 62 62 63 64 64 56 49 50 50 47 46 46 48 58 55 52 51 49 56 64 63 63 62 62 62 61 61 61 60 59 57 57 56 55 54 55 55 54 53 53 52
46 47 48 48 49 50 51 51 52 53 54 56 56 57 58 61 61 62 62 62 62 61 61 61 61 60 62 63 63 63 64 62 56 54 51 44 46 46 47 49 52 62 64 62 61 61 62 64 62 54 47 48 48 48 47 46 52 50 50 50 49 49 63 63 63 63 61 60 60 61 60 60 59 59 57 58 56 56 55 55 54 54 53 53 52
46 47 47 48 49 50 51 51 52 52 53 53 54 54 57 58 59 60 60 62 62 61 61 60 60 61 61 61 62 62 61 60 61 56 49 45 45 45 46 47 48 49 61 63 62 62 57 54 54 53 46 46 46 47 48 47 47 48 48 47 51 60 61 62 62 61 60 59 59 60 60 59 59 58 59 58 58 57 55 55 55 54 53 53 54
45 46 47 48 48 48 49 50 50 50 51 51 52 53 54 54 55 57 59 59 59 60 60 60 61 61 62 61 60 61 59 59 61 61 53 49 46 44 45 45 48 49 53 60 55 53 51 51 50 49 46 47 51 54 55 55 46 47 46 48 57 60 60 61 61 60 59 59 58 59 58 59 59 59 59 58 56 54 54 53 53 53 53 52 51
44 46 47 47 48 48 48 47 47 49 50 50 50 51 52 53 54 54 55 56 57 58 59 59 59 59 59 59 59 57 58 59 60 61 61 59 56 52 48 50 47 48 51 56 54 58 58 56 58 54 54 48 49 51 52 52 52 51 53 53 56 58 59 60 60 60 59 59 58 58 58 59 60 58 57 56 54 54 54 52 52 51 52 51 49
43 45 46 46 46 45 45 42 45 46 48 49 48 49 50 51 52 54 54 55 55 56 56 57 57 58 56 56 57 57 57 58 59 61 61 61 60 58 55 54 55 54 55 57 59 60 61 55 56 60 61 59 56 58 58 59 57 55 56 55 55 55 56 54 55 60 61 60 59 58 58 58 58 58 56 54 54 53 54 51 52 50 50 50 48
43 44 44 44 44 44 45 45 45 46 46 48 48 48 48 50 51 51 55 57 55 57 57 56 56 57 57 57 56 58 58 58 60 54 61 53 58 61 59 57 57 58 55 52 59 60 60 61 62 63 62 61 58 58 58 59 59 59 59 58 57 56 56 57 57 58 59 59 59 59 58 57 56 56 54 53 54 54 53 51 51 51 49 48 46
42 42 43 43 43 42 44 44 44 45 45 46 47 47 42 42 45 48 49 46 45 44 45 57 59 59 57 58 59 57 58 59 53 50 51 49 49 51 52 51 51 55 52 46 53 59 60 60 61 61 61 60 60 58 59 59 60 60 59 54 58 58 57 57 57 57 58 58 58 57 58 57 56 56 55 52 53 54 51 47 50 50 48 46 45
39 40 42 42 42 41 42 42 43 44 45 45 46 44 45 45 41 41 41 44 44 44 44 43 42 44 52 59 57 51 51 51 50 48 47 47 47 48 48 47 47 47 47 51 54 57 59 59 59 60 59 60 59 59 58 59 55 60 60 58 56 56 54 56 57 55 54 57 56 57 56 56 55 55 53 51 52 51 51 49 49 50 47 46 44
38 39 41 41 41 40 40 41 42 43 44 45 44 43 43 43 43 41 41 41 41 42 43 43 43 44 45 48 54 60 54 49 49 46 45 44 45 46 46 45 45 46 44 47 51 50 56 58 59 59 60 59 58 59 59 59 60 60 59 59 59 58 56 56 55 57 56 57 56 52 54 55 55 53 52 50 47 50 50 48 47 47 47 46 45
37 39 40 40 40 39 39 40 40 42 43 44 45 44 42 42 42 43 43 41 41 41 42 43 43 43 44 45 46 48 49 45 44 44 43 43 44 44 45 45 45 44 44 50 51 49 55 57 58 59 59 59 59 59 59 59 60 61 61 60 58 58 59 57 56 56 56 55 56 55 54 54 53 51 48 49 48 49 49 49 47 48 46 46 44
36 38 40 39 38 38 39 39 40 41 42 42 43 43 42 43 42 42 43 44 45 45 41 41 42 43 44 44 45 46 45 44 44 45 43 43 42 42 42 47 43 42 46 53 55 55 55 56 56 58 59 58 58 58 58 59 58 59 59 59 59 59 59 57 58 55 53 54 56 54 53 54 52 52 52 51 50 49 48 46 47 46 46 46 46
36 36 35 36 37 38 39 39 40 41 41 42 43 43 43 43 42 41 42 43 45 46 49 52 45 42 46 46 44 44 44 44 44 44 44 42 42 41 41 51 50 51 49 51 54 55 55 56 56 56 57 58 58 58 58 59 59 59 59 59 60 60 58 56 56 56 55 54 55 54 52 54 55 52 50 48 47 46 45 46 46 46 46 46 45
37 37 37 36 36 37 38 39 41 41 40 42 42 44 45 45 43 42 44 45 45 47 47 50 53 46 43 45 47 45 43 42 43 42 43 42 41 42 50 49 53 52 51 52 53 54 54 56 56 56 57 57 58 58 58 58 59 58 59 59 58 59 58 58 55 54 56 55 54 53 52 53 53 52 53 53 52 51 48 47 47 47 49 47 45
35 36 35 35 35 36 37 39 40 40 38 40 42 43 42 42 42 42 45 48 47 48 49 50 52 56 47 49 47 44 42 43 42 42 42 42 40 47 56 56 55 54 53 53 53 53 53 55 56 56 57 57 57 58 58 58 58 59 55 59 59 58 58 58 57 52 54 51 53 53 54 54 54 52 50 47 46 49 50 50 48 44 43 43 42
35 35 34 34 35 36 36 36 38 36 39 40 41 40 39 40 41 41 41 46 51 50 51 52 48 50 48 49 53 53 49 41 42 42 40 40 39 49 53 55 55 56 55 55 55 54 54 56 56 56 57 57 57 57 58 58 58 59 59 58 58 57 51 54 49 55 55 52 51 52 50 51 52 51 47 47 46 46 46 45 47 47 44 41 42
35 34 32 32 33 35 35 36 36 37 38 38 39 38 37 37 39 40 40 42 46 49 47 47 46 45 45 46 47 48 52 53 53 51 48 50 49 50 51 53 54 55 56 56 55 54 55 55 56 57 58 59 59 60 60 60 60 60 60 61 60 58 56 55 54 53 52 51 50 50 49 48 49 48 49 46 46 45 46 45 46 47 45 43 43
34 34 33 32 32 33 34 35 35 35 36 37 38 37 37 37 37 38 39 40 41 44 46 45 44 43 43 43 44 47 52 54 55 56 56 53 52 52 52 53 54 54 55 56 56 56 55 55 57 57 57 57 58 59 60 61 61 61 61 60 58 56 57 55 53 52 50 49 50 50 48 48 47 47 47 46 46 46 45 44 44 44 45 45 44
33 33 32 32 32 32 31 33 33 34 35 35 37 36 36 36 37 36 38 38 38 40 41 42 41 41 39 38 39 42 46 46 47 47 48 50 52 54 54 53 53 54 55 55 56 56 56 55 55 56 57 57 57 58 59 59 59 59 59 57 58 53 55 56 54 52 51 50 50 48 47 46 46 46 45 45 43 44 44 43 43 43 43 42 44
33 33 33 32 32 31 31 33 33 33 32 33 35 35 35 35 35 35 35 35 35 36 38 39 39 39 36 36 37 40 43 43 43 43 44 45 46 47 48 48 50 52 54 56 56 56 56 56 56 56 56 56 57 57 57 58 58 59 58 59 57 54 51 53 53 52 50 49 48 47 46 46 46 45 44 43 44 44 44 44 43 43 43 42 40
33 32 32 32 31 31 31 32 33 32 32 32 33 33 34 35 35 35 34 34 35 35 36 36 37 36 36 34 35 36 39 39 38 41 42 42 43 43 45 46 48 48 49 50 51 53 55 56 57 58 58 57 58 57 57 57 57 57 58 58 56 56 54 53 52 51 50 48 48 46 46 45 44 44 45 45 45 44 44 44 43 42 41 42 41
32 32 32 32 31 30 31 30 31 31 32 32 32 32 32 32 32 33 33 33 33 34 35 35 33 34 34 33 34 35 36 36 36 37 38 40 41 42 43 44 45 46 46 47 48 49 49 50 50 52 53 54 57 58 59 58 59 58 57 55 51 51 54 52 50 50 49 49 49 48 47 46 45 44 43 42 43 43 43 43 43 42 41 42 43
32 32 31 32 31 31 30 30 30 30 30 30 30 30 31 31 31 31 32 32 32 31 31 33 35 34 33 32 32 32 33 33 33 33 35 36 37 38 39 40 42 43 43 44 45 45 45 46 46 47 47 49 51 52 54 55 57 58 59 58 53 48 50 52 53 52 51 49 48 47 47 46 47 45 45 45 43 43 42 42 41 39 39 39 40
31 31 28 28 30 30 29 29 30 30 29 29 29 29 30 31 31 31 31 31 32 31 31 30 30 31 32 33 33 33 33 32 32 32 32 33 33 34 35 36 39 40 40 41 41 42 42 42 43 43 43 45 46 48 50 50 51 52 54 55 56 57 57 56 55 54 51 51 48 48 47 45 46 44 42 44 43 42 42 41 42 40 40 39 39
32 30 28 30 30 29 29 29 29 29 28 28 28 28 29 30 31 31 31 31 31 31 31 31 30 30 30 30 31 32 32 33 33 33 33 33 34 33 33 34 35 35 35 36 38 39 40 40 41 41 40 41 40 42 44 45 48 50 51 52 52 54 55 55 56 56 54 53 52 49 47 45 44 44 42 41 42 42 40 41 41 40 40 39 39
30 29 29 30 30 29 28 28 28 28 27 27 27 28 28 29 28 27 28 29 29 30 30 31 31 30 30 30 30 30 31 32 32 32 32 33 33 33 33 33 34 34 34 34 35 35 36 37 38 39 39 39 38 39 40 41 41 42 43 45 46 43 40 39 49 53 55 54 52 51 49 47 45 44 43 43 42 42 41 41 40 40 39 39 38
28 28 28 27 26 27 27 27 27 26 26 26 26 27 27 26 26 26 26 26 27 28 29 28 29 30 28 30 31 31 31 31 30 30 31 32 32 32 32 33 32 33 33 33 33 34 34 34 35 36 36 36 36 36 37 37 38 38 39 40 39 35 36 36 39 47 46 50 51 51 51 50 48 45 44 43 42 42 42 41 40 40 39 39 38
27 27 27 27 27 27 26 27 26 25 25 25 25 25 25 25 24 24 24 24 24 25 26 26 26 27 28 28 28 28 29 29 30 30 30 30 31 32 32 31 31 31 32 33 33 33 33 34 33 34 35 35 34 33 34 34 34 35 35 36 34 34 35 35 36 37 41 48 50 50 50 49 49 47 46 45 44 43 42 41 40 39 39 39 38
25 25 25 25 25 25 24 24 24 24 24 23 24 23 23 23 23 23 23 23 22 23 23 24 24 24 25 26 26 26 26 26 27 28 29 29 30 30 31 31 31 30 31 32 32 33 34 34 33 33 34 33 33 32 32 32 32 32 32 32 32 33 34 35 38 36 36 37 45 48 47 47 46 45 44 44 45 44 40 39 39 39 39 39 38